When you browse on this site, cookies collect data to enhance your experience and personalize the content and advertising you see.
Visit our Privacy Policy to learn more. By continuing to use the site, you agree to this use of cookies and data.
  • In Schweiz
  • Länderverzeichnis
  • Für 7 Tage
  • Wassertemperatur
  • Satellitenkarten
  • Wetterkarte
  • Widgets
  • user-avatar
    Anmelden

    Stündliche Wetter Malanje

    Heute, 17 Juni, Montag

    Zeit Temperatur Niederschläge Wind Luftdruck Luftfeuchtigkeit
    00:00 +18°C° 0 mm 1 m/S 667 mmHg 44%
    01:00 +16°C° 0 mm 1 m/S 667 mmHg 46%
    02:00 +16°C° 0 mm 1 m/S 667 mmHg 47%
    03:00 +15°C° 0 mm 1 m/S 666 mmHg 49%
    04:00 +14°C° 0 mm 1 m/S 666 mmHg 51%
    05:00 +14°C° 0 mm 1 m/S 667 mmHg 51%
    06:00 +15°C° 0 mm 1 m/S 667 mmHg 51%
    07:00 +15°C° 0 mm 1 m/S 668 mmHg 50%
    08:00 +18°C° 0 mm 2 m/S 669 mmHg 44%
    09:00 +21°C° 0 mm 2 m/S 669 mmHg 38%
    10:00 +26°C° 0 mm 2 m/S 670 mmHg 31%
    11:00 +27°C° 0 mm 2 m/S 670 mmHg 28%
    12:00 +29°C° 0 mm 2 m/S 670 mmHg 25%
    13:00 +31°C° 0 mm 2 m/S 669 mmHg 21%
    14:00 +31°C° 0 mm 2 m/S 669 mmHg 21%
    15:00 +31°C° 0 mm 2 m/S 668 mmHg 21%
    16:00 +30°C° 0 mm 2 m/S 667 mmHg 21%
    17:00 +27°C° 0 mm 1 m/S 667 mmHg 25%
    18:00 +25°C° 0 mm 1 m/S 667 mmHg 29%
    19:00 +22°C° 0 mm 1 m/S 666 mmHg 34%
    20:00 +21°C° 0 mm 1 m/S 667 mmHg 35%
    21:00 +20°C° 0 mm 1 m/S 667 mmHg 36%
    22:00 +19°C° 0 mm 1 m/S 667 mmHg 38%
    23:00 +19°C° 0 mm 1 m/S 667 mmHg 39%

    Morgen, 18 Juni, Dienstag

    Zeit Temperatur Niederschläge Wind Luftdruck Luftfeuchtigkeit
    00:00 +18°C° 0 mm 1 m/S 667 mmHg 41%
    01:00 +16°C° 0 mm 1 m/S 667 mmHg 42%
    02:00 +16°C° 0 mm 1 m/S 666 mmHg 44%
    03:00 +15°C° 0 mm 1 m/S 666 mmHg 45%
    04:00 +14°C° 0 mm 1 m/S 666 mmHg 47%
    05:00 +14°C° 0 mm 2 m/S 667 mmHg 49%
    06:00 +15°C° 0 mm 2 m/S 667 mmHg 50%
    07:00 +15°C° 0 mm 2 m/S 667 mmHg 52%
    08:00 +18°C° 0 mm 2 m/S 668 mmHg 45%
    09:00 +22°C° 0 mm 3 m/S 669 mmHg 38%
    10:00 +26°C° 0 mm 3 m/S 670 mmHg 31%
    11:00 +28°C° 0 mm 3 m/S 669 mmHg 27%
    12:00 +30°C° 0 mm 2 m/S 669 mmHg 24%
    13:00 +31°C° 0 mm 2 m/S 669 mmHg 21%
    14:00 +31°C° 0 mm 2 m/S 668 mmHg 20%
    15:00 +31°C° 0 mm 2 m/S 668 mmHg 20%
    16:00 +30°C° 0 mm 2 m/S 667 mmHg 20%
    17:00 +28°C° 0 mm 1 m/S 667 mmHg 25%
    18:00 +25°C° 0 mm 1 m/S 666 mmHg 29%
    19:00 +22°C° 0 mm 1 m/S 666 mmHg 34%
    20:00 +21°C° 0 mm 1 m/S 666 mmHg 35%
    21:00 +20°C° 0 mm 1 m/S 667 mmHg 37%
    22:00 +20°C° 0 mm 1 m/S 667 mmHg 38%
    23:00 +19°C° 0 mm 1 m/S 667 mmHg 40%

    übermorgen, 19 Juni, Mittwoch

    Zeit Temperatur Niederschläge Wind Luftdruck Luftfeuchtigkeit
    00:00 +18°C° 0 mm 1 m/S 666 mmHg 41%
    01:00 +18°C° 0 mm 1 m/S 666 mmHg 42%
    02:00 +16°C° 0 mm 1 m/S 666 mmHg 45%
    03:00 +15°C° 0 mm 1 m/S 666 mmHg 47%
    04:00 +14°C° 0 mm 2 m/S 666 mmHg 50%
    05:00 +14°C° 0 mm 2 m/S 666 mmHg 51%
    06:00 +15°C° 0 mm 2 m/S 667 mmHg 52%
    07:00 +15°C° 0 mm 2 m/S 667 mmHg 52%
    08:00 +18°C° 0 mm 3 m/S 668 mmHg 45%
    09:00 +21°C° 0 mm 3 m/S 669 mmHg 38%
    10:00 +26°C° 0 mm 4 m/S 670 mmHg 31%
    11:00 +28°C° 0 mm 3 m/S 669 mmHg 27%
    12:00 +30°C° 0 mm 3 m/S 669 mmHg 24%
    13:00 +31°C° 0 mm 2 m/S 669 mmHg 20%
    14:00 +31°C° 0 mm 2 m/S 668 mmHg 20%
    15:00 +31°C° 0 mm 2 m/S 668 mmHg 20%
    16:00 +31°C° 0 mm 2 m/S 667 mmHg 20%
    17:00 +28°C° 0 mm 1 m/S 667 mmHg 25%
    18:00 +25°C° 0 mm 1 m/S 667 mmHg 30%
    19:00 +22°C° 0 mm 1 m/S 667 mmHg 35%
    20:00 +21°C° 0 mm 1 m/S 667 mmHg 36%
    21:00 +20°C° 0 mm 1 m/S 667 mmHg 38%
    22:00 +19°C° 0 mm 1 m/S 667 mmHg 40%
    23:00 +19°C° 0 mm 1 m/S 667 mmHg 41%

    20 Juni, Donnerstag

    Zeit Temperatur Niederschläge Wind Luftdruck Luftfeuchtigkeit
    00:00 +19°C° 0 mm 1 m/S 667 mmHg 42%
    01:00 +18°C° 0 mm 1 m/S 667 mmHg 43%
    02:00 +16°C° 0 mm 1 m/S 667 mmHg 45%
    03:00 +16°C° 0 mm 2 m/S 666 mmHg 47%
    04:00 +15°C° 0 mm 2 m/S 666 mmHg 49%
    05:00 +15°C° 0 mm 2 m/S 667 mmHg 50%
    06:00 +15°C° 0 mm 2 m/S 667 mmHg 51%
    07:00 +15°C° 0 mm 2 m/S 667 mmHg 52%
    08:00 +19°C° 0 mm 3 m/S 668 mmHg 44%
    09:00 +22°C° 0 mm 3 m/S 669 mmHg 37%
    10:00 +27°C° 0 mm 4 m/S 669 mmHg 30%
    11:00 +28°C° 0 mm 3 m/S 669 mmHg 26%
    12:00 +30°C° 0 mm 3 m/S 669 mmHg 23%
    13:00 +32°C° 0 mm 2 m/S 668 mmHg 20%
    14:00 +31°C° 0 mm 2 m/S 668 mmHg 20%
    15:00 +31°C° 0 mm 2 m/S 667 mmHg 20%
    16:00 +31°C° 0 mm 1 m/S 667 mmHg 19%
    17:00 +28°C° 0 mm 1 m/S 667 mmHg 23%
    18:00 +25°C° 0 mm 1 m/S 666 mmHg 28%
    19:00 +23°C° 0 mm 1 m/S 666 mmHg 32%
    20:00 +22°C° 0 mm 1 m/S 667 mmHg 33%
    21:00 +21°C° 0 mm 1 m/S 667 mmHg 34%
    22:00 +20°C° 0 mm 1 m/S 667 mmHg 36%
    23:00 +19°C° 0 mm 1 m/S 667 mmHg 37%

    21 Juni, Freitag

    Zeit Temperatur Niederschläge Wind Luftdruck Luftfeuchtigkeit
    00:00 +19°C° 0 mm 1 m/S 667 mmHg 38%
    01:00 +18°C° 0 mm 1 m/S 667 mmHg 40%
    02:00 +16°C° 0 mm 1 m/S 666 mmHg 42%
    03:00 +15°C° 0 mm 2 m/S 666 mmHg 44%
    04:00 +15°C° 0 mm 2 m/S 666 mmHg 46%
    05:00 +15°C° 0 mm 2 m/S 666 mmHg 47%
    06:00 +15°C° 0 mm 2 m/S 667 mmHg 48%
    07:00 +14°C° 0 mm 3 m/S 667 mmHg 48%
    08:00 +19°C° 0 mm 3 m/S 668 mmHg 42%
    09:00 +22°C° 0 mm 3 m/S 669 mmHg 35%
    10:00 +26°C° 0 mm 4 m/S 669 mmHg 29%
    11:00 +28°C° 0 mm 3 m/S 669 mmHg 26%
    12:00 +30°C° 0 mm 3 m/S 668 mmHg 23%
    13:00 +31°C° 0 mm 2 m/S 668 mmHg 20%
    14:00 +31°C° 0 mm 2 m/S 667 mmHg 19%
    15:00 +31°C° 0 mm 2 m/S 667 mmHg 19%
    16:00 +31°C° 0 mm 2 m/S 666 mmHg 19%
    17:00 +28°C° 0 mm 1 m/S 666 mmHg 23%
    18:00 +25°C° 0 mm 1 m/S 666 mmHg 27%
    19:00 +22°C° 0 mm 1 m/S 665 mmHg 31%
    20:00 +22°C° 0 mm 1 m/S 666 mmHg 33%
    21:00 +21°C° 0 mm 1 m/S 666 mmHg 34%
    22:00 +20°C° 0 mm 1 m/S 666 mmHg 35%
    23:00 +19°C° 0 mm 1 m/S 666 mmHg 36%

    22 Juni, Samstag

    Zeit Temperatur Niederschläge Wind Luftdruck Luftfeuchtigkeit
    00:00 +18°C° 0 mm 1 m/S 666 mmHg 37%
    01:00 +18°C° 0 mm 1 m/S 666 mmHg 38%
    02:00 +16°C° 0 mm 1 m/S 665 mmHg 40%
    03:00 +15°C° 0 mm 1 m/S 665 mmHg 42%
    04:00 +14°C° 0 mm 1 m/S 665 mmHg 44%
    05:00 +14°C° 0 mm 1 m/S 666 mmHg 45%
    06:00 +14°C° 0 mm 1 m/S 666 mmHg 46%
    07:00 +14°C° 0 mm 1 m/S 666 mmHg 47%
    08:00 +18°C° 0 mm 2 m/S 667 mmHg 41%
    09:00 +21°C° 0 mm 2 m/S 668 mmHg 34%
    10:00 +26°C° 0 mm 3 m/S 669 mmHg 27%
    11:00 +28°C° 0 mm 2 m/S 669 mmHg 24%
    12:00 +30°C° 0 mm 2 m/S 668 mmHg 21%
    13:00 +33°C° 0 mm 1 m/S 668 mmHg 18%
    14:00 +32°C° 0 mm 1 m/S 668 mmHg 18%
    15:00 +32°C° 0 mm 1 m/S 667 mmHg 17%
    16:00 +31°C° 0 mm 1 m/S 666 mmHg 17%
    17:00 +28°C° 0 mm 1 m/S 666 mmHg 21%
    18:00 +25°C° 0 mm 1 m/S 666 mmHg 26%
    19:00 +22°C° 0 mm 1 m/S 666 mmHg 30%
    20:00 +21°C° 0 mm 1 m/S 666 mmHg 31%
    21:00 +20°C° 0 mm 1 m/S 666 mmHg 33%
    22:00 +19°C° 0 mm 1 m/S 666 mmHg 35%
    23:00 +19°C° 0 mm 1 m/S 666 mmHg 40%
    Mehr zeigen